Date String (YYYY-MM-DD hh:mm:ss) UTC,Instrument flags,absolute air pressure of the measurement (hPa),sample flow rate (lpm),inlet stack bypass flow (lpm),air temperature of the measurement (°C),ambient temperature measured by the external sensor (°C),aerosol sample conditioner tube jacket temperature (°C),OPC LED temperature (°C),internal box temperature (°C),relative humidity of the measurement (%),span deviation,mass concentration of particles derived from Lorenz-Mie calculation of OPC scattering (μg/m³),mass concentration of particles derived from Lorenz-Mie calculation of OPC scattering (μg/m³),mass concentration of particles derived from Lorenz-Mie calculation of OPC scattering (μg/m³)
DateTimeUTC,F1_M11,P_M11,Q1_M11,Q2_M11,T1_M11,T2_M11,T3_M11,T4_M11,T5_M11,U1_M11,ZSPAN_M11,X0_M11,X2_M11,X1_M11
2023-10-26 22:00:00,SystemResetWarning,0824.4,5.01,000.00,028.4,026.9,000.0,036.9,030.0,21.8,-000.4,0014.89,0009.09,0008.47
2023-10-26 22:01:00,SystemResetWarning,0824.4,5.00,000.00,028.4,026.9,000.0,036.9,030.0,21.8,-000.4,0014.96,0009.02,0008.44
2023-10-26 22:02:00,SystemResetWarning,0824.4,5.00,000.00,028.4,026.9,000.0,036.9,030.0,21.8,-000.6,0015.10,0008.94,0008.40
2023-10-26 22:03:00,SystemResetWarning,0824.4,4.99,000.00,028.4,026.9,000.0,036.9,030.0,21.8,-000.7,0014.96,0008.86,0008.34
2023-10-26 22:04:00,SystemResetWarning,0824.5,4.99,000.00,028.4,026.9,000.0,036.9,030.0,21.8,-000.6,0015.39,0008.78,0008.28
2023-10-26 22:05:00,SystemResetWarning,0824.6,4.99,000.00,028.4,026.9,000.0,036.9,030.0,21.7,-000.6,0015.40,0008.69,0008.20
2023-10-26 22:06:00,SystemResetWarning,0824.7,5.00,000.00,028.4,026.9,000.0,036.9,029.9,21.7,-001.0,0014.59,0008.65,0008.14
2023-10-26 22:07:00,SystemResetWarning,0824.7,5.00,000.00,028.4,026.9,000.0,036.9,029.9,21.7,-001.3,0014.66,0008.62,0008.11
2023-10-26 22:08:00,SystemResetWarning,0824.8,5.01,000.00,028.4,026.9,000.0,036.9,030.0,21.7,-001.5,0014.64,0008.61,0008.11
2023-10-26 22:09:00,SystemResetWarning,0824.8,5.01,000.00,028.4,026.9,000.0,036.9,030.0,21.7,-001.6,0014.26,0008.58,0008.10
2023-10-26 22:10:00,SystemResetWarning,0824.8,5.00,000.00,028.4,026.9,000.0,036.9,029.9,21.6,-001.6,0013.96,0008.57,0008.09
2023-10-26 22:11:00,SystemResetWarning,0824.9,4.99,000.00,028.4,026.9,000.0,036.9,029.9,21.6,-001.7,0014.04,0008.59,0008.09
2023-10-26 22:12:00,SystemResetWarning,0824.9,5.00,000.00,028.4,026.9,000.0,036.9,030.0,21.5,-001.9,0014.46,0008.63,0008.10
2023-10-26 22:13:00,SystemResetWarning,0824.8,5.01,000.00,028.4,026.9,000.0,036.9,029.9,21.5,-001.8,0014.36,0008.66,0008.11
2023-10-26 22:14:00,SystemResetWarning,0824.8,5.00,000.00,028.4,026.9,000.0,036.9,029.9,21.4,-001.6,0015.10,0008.71,0008.12
2023-10-26 22:15:00,SystemResetWarning,0824.9,5.01,000.00,028.4,026.9,000.0,036.8,029.9,21.4,-001.9,0014.45,0008.68,0008.10
2023-10-26 22:16:00,SystemResetWarning,0824.9,5.00,000.00,028.4,026.9,000.0,036.8,029.9,21.4,-002.0,0014.13,0008.66,0008.11
2023-10-26 22:17:00,SystemResetWarning,0824.9,5.00,000.00,028.4,026.8,000.0,036.8,029.9,21.4,-001.9,0013.98,0008.63,0008.11
2023-10-26 22:18:00,SystemResetWarning,0824.9,5.00,000.00,028.3,026.8,000.0,036.8,029.9,21.4,-001.9,0013.90,0008.65,0008.12
2023-10-26 22:19:00,SystemResetWarning,0824.9,5.00,000.00,028.3,026.8,000.0,036.8,029.9,21.3,-001.9,0014.27,0008.70,0008.11
2023-10-26 22:20:00,SystemResetWarning,0824.9,5.00,000.00,028.4,026.8,000.0,036.8,029.9,21.3,-001.6,0014.35,0008.73,0008.11
2023-10-26 22:21:00,SystemResetWarning,0824.9,5.00,000.00,028.4,026.8,000.0,036.8,029.9,21.3,-001.4,0014.43,0008.77,0008.11
2023-10-26 22:22:00,SystemResetWarning,0825.0,5.00,000.00,028.4,026.9,000.0,036.8,029.9,21.2,-001.3,0014.50,0008.76,0008.09
2023-10-26 22:23:00,SystemResetWarning,0825.0,5.00,000.00,028.4,026.9,000.0,036.9,029.9,21.2,-001.0,0014.21,0008.78,0008.09
2023-10-26 22:24:00,SystemResetWarning,0825.0,5.01,000.00,028.4,026.9,000.0,036.9,030.0,21.2,-000.8,0013.95,0008.75,0008.05
2023-10-26 22:25:00,SystemResetWarning,0824.9,5.00,000.00,028.4,026.9,000.0,036.9,030.0,21.2,-000.8,0013.39,0008.70,0008.03
2023-10-26 22:26:00,SystemResetWarning,0825.0,5.00,000.00,028.4,026.9,000.0,036.8,029.9,21.2,-000.8,0013.37,0008.69,0008.01
2023-10-26 22:27:00,SystemResetWarning,0825.2,5.00,000.00,028.4,026.9,000.0,036.8,029.9,21.2,-000.7,0013.43,0008.69,0007.99
2023-10-26 22:28:00,SystemResetWarning,0825.2,5.00,000.00,028.4,026.9,000.0,036.8,029.9,21.2,-000.8,0013.43,0008.70,0007.99
2023-10-26 22:29:00,SystemResetWarning,0825.2,5.00,000.00,028.4,026.9,000.0,036.8,029.9,21.2,-000.8,0013.13,0008.69,0007.99
2023-10-26 22:30:00,SystemResetWarning,0825.2,5.00,000.00,028.4,026.9,000.0,036.8,029.9,21.3,-000.9,0012.66,0008.65,0007.97
2023-10-26 22:31:00,SystemResetWarning,0825.2,5.00,000.00,028.4,026.9,000.0,036.8,029.9,21.3,-001.1,0013.06,0008.57,0007.94
2023-10-26 22:32:00,SystemResetWarning,0825.2,5.01,000.00,028.4,026.9,000.0,036.8,029.9,21.3,-001.2,0013.34,0008.50,0007.92
2023-10-26 22:33:00,SystemResetWarning,0825.2,5.00,000.00,028.4,026.9,000.0,036.8,029.9,21.3,-001.5,0013.31,0008.43,0007.90
2023-10-26 22:34:00,SystemResetWarning,0825.2,5.00,000.00,028.4,026.9,000.0,036.8,030.0,21.3,-001.7,0013.14,0008.36,0007.88
2023-10-26 22:35:00,SystemResetWarning,0825.3,5.00,000.00,028.4,026.9,000.0,036.8,030.0,21.3,-001.7,0013.45,0008.36,0007.90
2023-10-26 22:36:00,SystemResetWarning,0825.4,5.00,000.00,028.4,026.9,000.0,036.8,030.0,21.3,-001.9,0013.53,0008.36,0007.92
2023-10-26 22:37:00,SystemResetWarning,0825.3,5.00,000.00,028.4,026.9,000.0,036.8,029.9,21.3,-001.9,0013.32,0008.35,0007.95
2023-10-26 22:38:00,SystemResetWarning,0825.2,5.00,000.00,028.4,026.9,000.0,036.8,029.9,21.3,-001.8,0013.30,0008.37,0007.97
2023-10-26 22:39:00,SystemResetWarning,0825.2,5.00,000.00,028.4,026.9,000.0,036.8,030.0,21.3,-001.8,0013.28,0008.37,0007.98
2023-10-26 22:40:00,SystemResetWarning,0825.2,4.99,000.00,028.4,027.0,000.0,036.9,030.0,21.3,-001.5,0013.25,0008.35,0007.96
2023-10-26 22:41:00,SystemResetWarning,0825.3,5.00,000.00,028.4,027.0,000.0,036.9,030.0,21.4,-001.3,0013.20,0008.33,0007.95
2023-10-26 22:42:00,SystemResetWarning,0825.4,5.00,000.00,028.4,027.0,000.0,036.8,029.9,21.4,-001.3,0012.63,0008.33,0007.94
2023-10-26 22:43:00,SystemResetWarning,0825.5,5.00,000.00,028.4,027.0,000.0,036.8,030.0,21.4,-001.3,0012.24,0008.33,0007.94
2023-10-26 22:44:00,SystemResetWarning,0825.5,5.00,000.00,028.4,027.0,000.0,036.9,030.0,21.4,-001.2,0012.07,0008.35,0007.96
2023-10-26 22:45:00,SystemResetWarning,0825.5,5.00,000.00,028.4,027.0,000.0,036.9,030.0,21.3,-001.2,0012.31,0008.36,0007.96
2023-10-26 22:46:00,SystemResetWarning,0825.5,5.00,000.00,028.4,027.1,000.0,036.9,030.0,21.3,-001.1,0012.23,0008.38,0007.97
2023-10-26 22:47:00,SystemResetWarning,0825.5,5.01,000.00,028.4,027.0,000.0,036.9,030.0,21.3,-001.3,0011.92,0008.38,0007.97
2023-10-26 22:48:00,SystemResetWarning,0825.7,5.00,000.00,028.4,027.0,000.0,036.9,030.0,21.4,-001.3,0012.06,0008.43,0007.99
2023-10-26 22:49:00,SystemResetWarning,0825.7,4.99,000.00,028.4,027.0,000.0,036.9,030.0,21.7,-001.2,0012.21,0008.52,0008.04
2023-10-26 22:50:00,SystemResetWarning,0825.8,5.02,000.00,028.4,027.0,000.0,036.9,030.0,21.3,-001.3,0012.28,0008.59,0008.12
2023-10-26 22:51:00,SystemResetWarning,0825.8,4.99,000.00,028.4,027.0,000.0,036.8,030.0,21.3,-001.4,0012.43,0008.67,0008.19
2023-10-26 22:52:00,SystemResetWarning,0825.8,4.99,000.00,028.4,027.0,000.0,036.9,030.0,21.3,-001.5,0012.57,0008.74,0008.27
2023-10-26 22:53:00,SystemResetWarning,0825.8,4.99,000.00,028.4,027.0,000.0,036.9,030.0,21.3,-001.6,0012.71,0008.82,0008.36
2023-10-26 22:54:00,SystemResetWarning,0825.9,5.00,000.00,028.4,026.9,000.0,036.8,030.0,21.3,-001.6,0012.75,0008.85,0008.41
2023-10-26 22:55:00,SystemResetWarning,0825.9,5.01,000.00,028.4,027.0,000.0,036.8,030.0,21.3,-001.6,0012.86,0008.90,0008.47
2023-10-26 22:56:00,SystemResetWarning,0825.9,5.01,000.00,028.4,027.0,000.0,036.9,030.0,21.3,-001.9,0012.88,0008.97,0008.55
2023-10-26 22:57:00,SystemResetWarning,0826.0,5.00,000.00,028.4,027.0,000.0,036.8,030.0,21.4,-001.7,0012.80,0009.04,0008.61
2023-10-26 22:58:00,SystemResetWarning,0826.0,5.01,000.00,028.4,027.0,000.0,036.8,030.0,21.4,-001.4,0012.84,0009.09,0008.67
2023-10-26 22:59:00,SystemResetWarning,0826.0,4.99,000.00,028.3,026.8,000.0,036.8,029.8,21.4,-001.2,0012.84,0009.10,0008.69
